Tracking 28565 objects as of 3-Mar-2024
HD Live streaming from Space Station
objects crossing your sky now

SECOR 5 (EGRS 5)

Track SECOR 5 (EGRS 5) now!
10-day predictions
SECOR 5 (EGRS 5) is classified as:


NORAD ID: 1506
Int'l Code: 1965-063A
Perigee: 1,147.1 km
Apogee: 2,422.9 km
Inclination: 69.2 °
Period: 122.2 minutes
Semi major axis: 8155 km
RCS: 0.4268 m2 (medium)
Launch date: August 10, 1965
Source: United States (US)
Launch site: WALLOPS ISLAND (WLPIS)
Your satellite tracking list
Your tracking list is empty




NASA's NSSDC Master Catalog

Two Line Element Set (TLE):
1 01506U 65063A   24063.45643319 -.00000023  00000-0  49831-4 0  9997
2 01506  69.2318  71.8409 0782147 106.8831   3.7671 11.78663324519761
Source of the keplerian elements: AFSPC